Terug naar catalogus

COSMOS 2251 DEB

ActiefLEO
NORAD 37993·DEBRIS·🇷🇺 Russia

Gelanceerd Jun 16, 1993 vanaf Plesetsk Cosmodrome

Loading…

Volgende Passages (komende 24 uur)

TLE

VersSource: Space-Track

Epoch: Sep 13, 2026, 13:31 UTC

1 37993U 93036BQU 26256.56323550  .00003156  00000-0  62448-3 0  9994
2 37993  74.0252   0.7575 0021459  18.4262 341.7677 14.62633116693322

Volg COSMOS 2251 DEB in realtime met AllMySat

Download on the App Store